Location: Gajan
(43.0218°N, 1.1244°E)
Time: 16:05:56
(UTC+00:00)

Cosmos 2074 Rocket - Pass Details

Date: 22 April 2021
Orbit: 968 x 985 km, 82.9° (Epoch: 12 May)

Event Time Altitude Azimuth Distance (km) Brightness Sun altitude
Rises 23:33:43 0° 353° (N) 3,689 8.1 -34.3°
Reaches altitude 10° 23:36:14 10° 354° (N) 2,739 7.2 -34.3°
Enters shadow 23:41:12 58° 6° (N) 1,139 4.5 -34.4°
